Back to catalog

COSMOS 397 DEB

AliveLEO
NORAD 5019·DEBRIS·🇷🇺 Russia

Launched Feb 25, 1971 from Baikonur Cosmodrome

Loading…

Next Passes (next 24 hours)

TLE

FreshSource: Space-Track

Epoch: Sep 14, 2026, 00:08 UTC

1 05019U 71015N   26257.00617288  .00010196  00000-0  15816-2 0  9993
2 05019  65.6768 254.9972 0381008 331.5535  26.5214 14.34755026724963

Track COSMOS 397 DEB in real time with AllMySat

Download on the App Store